Regional Weather Roundup
Issued by NWS Kansas City/Pleasant Hill, MO

Home | Current Version | Previous Version | Graphics & Text | Print | Product List | Glossary Off
Versions: 1 2 3 4 5 6 7 8 9 10 11 12 13 14 15 16 17 18 19 20 21 22 23 24 25 26 27 28 29 30 31 32 33 34 35 36 37 38 39 40 41 42 43 44 45 46 47 48 49 50

000
ASUS43 KEAX 271010
RWREAX

WEATHER ROUNDUP FOR EASTERN KANSAS AND NORTHWEST MISSOURI
NATIONAL WEATHER SERVICE KANSAS CITY/PLEASANT HILL MO
500 AM CDT WED AUG 27 2014

KSZ040-057-103>105-MOZ028-029-037-043-271100-
...KANSAS CITY METROPOLITAN AREA...

CITY           SKY/WX    TMP DP  RH WIND       PRES   REMARKS
K.C. INTL      MOCLDY    75  72  90 SE10      30.04F
K.C. DOWNTOWN  MOCLDY    76  72  87 E6        30.04F
LEES SUMMIT    CLEAR     73  72  96 E6        30.06F
OLATHE - IXD   PTCLDY    73  68  84 SE7       30.07F
OLATHE - OJC   PTCLDY    74  72  93 SE7       30.06F
LAWRENCE       MOCLDY    76  72  87 SE3       30.05F

$$

MOZ001>008-011>017-020>025-030>033-038>040-044>046-053-054-271100-
...NORTHERN AND CENTRAL MISSOURI...

CITY           SKY/WX    TMP DP  RH WIND       PRES   REMARKS
ST. JOSEPH     CLOUDY    75  71  87 E5        30.05F
MOSBY          MOSUNNY   73  72  94 CALM      30.05F
WHITEMAN AFB   CLEAR     70  54  56 CALM      30.06F
CLINTON        CLEAR     70  70 100 CALM      30.07F
SEDALIA        CLEAR     71  67  87 E3        30.08F
WARSAW         NOT AVBL
MARSHALL       CLEAR     75  73  94 CALM      30.07F
CHILLICOTHE      N/A     71  68  90 CALM      30.08F
MOBERLY        PTCLDY    72  68  88 CALM      30.09S
KIRKSVILLE     CLEAR     69  67  93 NE7       30.11S

$$

MOZ041-047>049-056>058-063>065-088>090-097-271100-
...EASTERN AND SOUTHERN MISSOURI...

CITY           SKY/WX    TMP DP  RH WIND       PRES   REMARKS
ST. LOUIS INTL CLEAR     75  69  81 N3        30.07S
SPIRIT OF STL  CLEAR     73  69  87 CALM      30.05F
COLUMBIA       FOG       73  73 100 CALM      30.07F VSB 3/4
JEFFERSON CITY CLEAR     72  70  93 CALM      30.06F
MEXICO         CLEAR    N/A N/A N/A CALM      30.08S FOG
HANNIBAL       CLEAR     72  70  94 CALM      30.08S
ROLLA          CLEAR     71  66  84 S8        30.08S
LEBANON        CLEAR     72  68  88 SW5       30.11S
OSAGE BEACH    CLEAR     70  64  83 CALM      30.08S
SPRINGFIELD    CLEAR     72  67  84 CALM      30.09F
BRANSON        PTCLDY    72  68  88 CALM      30.12R
NEVADA         PTCLDY    70  66  88 CALM      30.08F
JOPLIN         CLEAR     74  65  73 SE5       30.08F
WEST PLAINS    CLEAR     70  67  90 CALM      30.11F

$$

IAZ060-094-KSZ022-034>040-054-083-096-NEZ052-066-093-271100-
...KANSAS...SOUTHEAST NEBRASKA AND IOWA...

CITY           SKY/WX    TMP DP  RH WIND       PRES   REMARKS
TOPEKA         MOCLDY    76  74  93 SE3       30.05F
MANHATTAN      PTCLDY    74  70  87 N5        30.04F
EMPORIA        PTCLDY    73  67  81 S7        30.05F
CHANUTE        PTCLDY    73  66  78 S3        30.06F
WICHITA        MOCLDY    73  66  78 S5        30.05F
OMAHA          PTCLDY    67  64  90 N7        30.08F
LINCOLN        CLOUDY    69  66  90 NE5       30.08F
FALLS CITY     CLOUDY    72  68  87 NE10      30.08R
LAMONI         MOCLDY    68  65  90 NE6       30.10S
DES MOINES     MOCLDY    69  62  78 NE7       30.11F

$$




USA.gov is the U.S. government's official web portal to all federal, state and local government web resources and services.